This demonstration page uses our WeatherBlox Daily Observations layout. Learn more.

Left ArrowRight Arrow

39.01783, -85.05884

Hourly Observations for March 2, 2022

Temp ( °F °C ) Dew Point ( °F °C ) Humidity (%) Winds ( mph kmh ) Pressure ( in mb ) Visibility ( mi km ) Precip ( " mm )
12:52 am 00:52 Cloudy 52 11.1 36 2.2 55 55 N 7 11 30.03 1017 10 16 0.00 0.00
1:52 am 01:52 Mostly Cloudy 49 9.4 38 3.3 66 66 N 10 17 30.04 1017 10 16 0.00 0.00
2:52 am 02:52 Mostly Clear 47 8.3 37 2.8 69 69 NNE 7 11 30.04 1017 10 16 0.00 0.00
3:52 am 03:52 Clear 42 5.6 36 2.2 79 79 NNE 7 11 30.04 1017 10 16 0.00 0.00
4:52 am 04:52 Clear 41 5 35 1.7 79 79 N 7 11 30.05 1018 10 16 0.00 0.00
5:52 am 05:52 Clear 39 3.9 34 1.1 82 82 N 8 13 30.06 1018 10 16 0.00 0.00
6:52 am 06:52 Mostly Clear 39 3.9 34 1.1 82 82 N 6 9 30.08 1019 10 16 0.00 0.00
7:52 am 07:52 Sunny 39 3.9 34 1.1 82 82 N 5 7 30.09 1019 7 11 0.00 0.00
8:52 am 08:52 Sunny 42 5.6 35 1.7 76 76 ENE 6 9 30.10 1019 8 13 0.00 0.00
9:52 am 09:52 Sunny 46 7.8 35 1.7 66 66 NE 3 6 30.11 1020 10 16 0.00 0.00
10:52 am 10:52 Mostly Sunny 51 10.6 37 2.8 59 59 N 3 6 30.11 1020 10 16 0.00 0.00
11:52 am 11:52 Partly Cloudy 56 13.3 38 3.3 51 51 WSW 7 11 30.10 1019 10 16 0.00 0.00
12:52 pm 12:52 Partly Cloudy 62 16.7 36 2.2 38 38 W 7 11 30.08 1019 10 16 0.00 0.00
1:52 pm 13:52 Partly Cloudy 63 17.2 36 2.2 37 37 W 9 15 30.05 1018 10 16 0.00 0.00
2:52 pm 14:52 Mostly Sunny 66 18.9 38 3.3 36 36 WSW 10 17 30.02 1017 10 16 0.00 0.00
3:52 pm 15:52 Mostly Sunny 67 19.4 37 2.8 33 33 SW 13 20 29.99 1016 10 16 0.00 0.00
4:52 pm 16:52 Mostly Sunny 67 19.4 37 2.8 33 33 SW 10 17 29.97 1015 10 16 0.00 0.00
5:52 pm 17:52 Mostly Sunny 65 18.3 38 3.3 37 37 WSW 10 17 29.97 1015 10 16 0.00 0.00
6:52 pm 18:52 Partly Cloudy 62 16.7 38 3.3 41 41 SW 8 13 29.97 1015 10 16 0.00 0.00
7:52 pm 19:52 Mostly Cloudy 65 18.3 39 3.9 39 39 W 14 22 29.97 1015 10 16 0.00 0.00
8:52 pm 20:52 Mostly Cloudy 62 16.7 41 5 46 46 SW 9 15 29.96 1015 10 16 0.00 0.00
9:52 pm 21:52 Cloudy 63 17.2 39 3.9 41 41 SW 6 9 29.94 1014 10 16 0.00 0.00
10:52 pm 22:52 Cloudy 64 17.8 39 3.9 40 40 WSW 8 13 29.94 1014 10 16 0.00 0.00
11:52 pm 23:52 Cloudy with Light Rain 62 16.7 40 4.4 44 44 SW 7 11 29.94 1014 10 16 0.00 0.00

Powered by AerisWeather